COSMOS 842

Satellite information

Favourite Embed

Satellite Type and Status

PAYLOADIN ORBIT

Key statistics

Satellite COSMOS 842 at a glance.

Uptime

18042

Days in orbit

Revolutions

≈ 13.7

Per day

Orbit

LEO

Low Earth Orbit

Inclination

83.0

Latest

Satellite identification and parameters

Extended collection of information and parameters for COSMOS 842.

Object identification

Identified? True

Debris? False

Object name: COSMOS 842

International designator: 1976-070A

Object number (NORAD): 9025

Object ID (CCSDS): 9025

Country: COMMONWEALTH OF INDEPENDENT STATES (CIS)

Current information (Y/N): Y

RCS size: LARGE

Orbital parameters

Period: 104.786 minutes

Inclination: 82.9871 deg

SMA: 7362.55 km

Apoapsis: 1005.674 km

Periapsis: 963.157 km

RAAN: 193.6285 deg

Eccentricy: 0.00288738

Argument of periapsis: 66.8504 deg

Mean anomaly: 106.4357 deg

Mean motion: 13.74232953 rev/day

Mean motion (dot): 0.00000051 rev/day2

B* drag term: 0.000037804366 1/REarth

Two-line elements (TLE)

Creation date: Dec. 12, 2025, 10:14 a.m.

Reference frame: TEME

Reference center: EARTH

Epoch: Dec. 12, 2025, 7:48 a.m. UTC

TLE line 0: 0 COSMOS 842

TLE line 1: 1 09025U 76070A 25346.32526816 .00000051 00000-0 37804-4 0 9991

TLE line 2: 2 09025 82.9871 193.6285 0028874 66.8504 106.4357 13.74232953476423

Live tracking on map

Real-time ground track for satellite COSMOS 842.

In-orbit conjunctions

A list of the most updated potential collisions computed for object COSMOS 842.

Target Orbit TCA Probability of collision Miss distance Type
FENGYUN 1C DEB SSO 2025-11-08 19:33:11 0.0002020574 704.0 (m) DEBRIS
FENGYUN 1C DEB SSO 2025-01-18 16:45:15 0.0001233999 915.0 (m) DEBRIS
SL-8 R/B LEO 2024-06-27 04:34:55 0.0001313209 343.0 (m) ROCKET BODY
FENGYUN 1C DEB SSO 2024-06-04 21:41:15 0.0005760525 627.0 (m) DEBRIS

Associated space launch

The Sfera or Geoid series were the first soviet geodetic satellites to improve the accuracy of maps. The development of the satellites started in 1965 at NPO-PM.

COSMOS 842 was lifted into orbit during the mission ‘Kosmos-3M | Sfera 15’, on board a Kosmos-3M space rocket.

The launch took place on July 21, 1976, 10:20 a.m. from 132/1 (132L).

For more information about the launch, click the button.

Launch to space Kosmos-3M | Sfera 15
Kosmos-3M | Sfera 15

Agency: N/A

Status: Launch Successful

Launch date: July 21, 1976, 10:20 a.m. UTC

Rocket: Kosmos-3M

Launch pad: 132/1 (132L)

Location: Plesetsk Cosmodrome, Russian Federation

...

Latest news about this satellite

There are no fresh news available about this satellite. Check back as we update our databases every day.


Newsletter sign-up

Weekly statistics, charts and insights to help you stay on top of the space industry.